Location: Unspecified
(42.9300°N, 71.1866°W)
Time: 14:35:40
(UTC-04:00)

GENESIS II - Visible Passes

Search period start: 24 July 2016 00:00
Search period end: 03 August 2016 00:00
Orbit: 483 x 556 km, 64.5° (Epoch: 23 July)

Date Brightness Start Highest point End Pass type
(mag) Time Alt. Az. Time Alt. Az. Time Alt. Az.
24 Jul 4.2 03:07:26 58° SSW 03:08:12 86° ESE 03:12:22 10° NE visible
24 Jul 6.6 04:44:14 10° WNW 04:46:35 15° NW 04:48:55 10° N visible
25 Jul 4.1 02:53:24 75° SW 02:53:44 90° WSW 02:57:54 10° NE visible
25 Jul 6.7 04:29:55 10° WNW 04:32:08 14° NW 04:34:23 10° N visible
26 Jul 4.2 02:39:19 85° NNW 02:39:19 85° NNW 02:43:26 10° NNE visible
26 Jul 6.7 04:15:36 10° WNW 04:17:42 14° NW 04:19:50 10° N visible
27 Jul 4.5 02:25:12 71° N 02:25:12 71° N 02:28:58 10° NNE visible
27 Jul 6.8 04:01:17 10° WNW 04:03:16 13° NW 04:05:17 10° N visible
28 Jul 4.8 02:11:03 58° NNE 02:11:03 58° NNE 02:14:30 10° NNE visible
28 Jul 6.8 03:46:59 10° WNW 03:48:50 13° NW 03:50:42 10° N visible
29 Jul 5.2 01:56:51 49° NNE 01:56:51 49° NNE 02:00:01 10° NNE visible
29 Jul 6.9 03:32:41 10° WNW 03:34:24 12° NW 03:36:08 10° N visible
30 Jul 5.4 01:42:37 43° NNE 01:42:37 43° NNE 01:45:33 10° NNE visible
30 Jul 6.9 03:18:24 10° WNW 03:19:58 12° NW 03:21:32 10° NNW visible
31 Jul 5.7 01:28:21 38° NNE 01:28:21 38° NNE 01:31:04 10° NNE visible
31 Jul 7.0 03:04:09 10° NW 03:05:32 11° NW 03:06:55 10° NNW visible
01 Aug 5.9 01:14:02 35° NNE 01:14:02 35° NNE 01:16:35 10° NNE visible
01 Aug 7.1 02:49:54 10° NW 02:51:06 11° NNW 02:52:17 10° NNW visible
02 Aug 6.0 00:59:40 32° NNE 00:59:40 32° NNE 01:02:06 10° NNE visible
02 Aug 7.2 02:35:42 10° NW 02:36:39 11° NNW 02:37:36 10° NNW visible
